Tracking 20724 objects as of 2-Jun-2020
HD Live streaming from Space Station
objects crossing your sky now

METEOR 2-10 DEB

Track METEOR 2-10 DEB now!
10-day predictions


NORAD ID: 38537
Int'l Code: 1983-109E
Perigee: 679.2 km
Apogee: 774.1 km
Inclination: 81.2 °
Period: 99.2 minutes
Semi major axis: 7097 km
RCS: 0.0027 m2 (small)
Launch date: October 28, 1983
Source: Commonwealth of Independent States (former USSR) (CIS)
Launch site: PLESETSK MISSILE AND SPACE COMPLEX (PKMTR)

Note: This is SATELLITE DEBRIS
aabbcc
Your satellite tracking list
Your tracking list is empty




NASA's NSSDC Master Catalog

Two Line Element Set (TLE):
1 38537U 83109E   20152.77511357 +.00001540 +00000-0 +36795-3 0  9996
2 38537 081.1503 328.5318 0066841 220.5776 139.0425 14.51892551688849
Source of the keplerian elements: AFSPC